Tracking 29892 objects as of 21-Nov-2024
HD Live streaming from Space Station
objects crossing your sky now

STARLINK-31810

Track STARLINK-31810 now!
10-day predictions
STARLINK-31810 is classified as:


NORAD ID: 59799
Int'l Code: 2024-093T
Perigee: 450.7 km
Apogee: 451.6 km
Inclination: 43.0 °
Period: 93.5 minutes
Semi major axis: 6822 km
RCS: Unknown
Launch date: May 18, 2024
Source: United States (US)
Launch site: AIR FORCE EASTERN TEST RANGE (AFETR)
Your satellite tracking list
Your tracking list is empty




NASA's NSSDC Master Catalog

Two Line Element Set (TLE):
1 59799U 24093T   24325.61264241 -.00001694  00000-0 -33303-4 0  9997
2 59799  43.0021  17.2996 0000667 290.2241  69.8543 15.40699822 30064
Source of the keplerian elements: AFSPC